Tracking 35274 objects as of 10-Sep-2026
HD Live streaming from Space Station
objects crossing your sky now

PSLV DEB


PSLV DEB is no longer on orbit


NORAD ID: 27323
Int'l Code: 2001-049KV
Launch date: October 22, 2001
Source: India (IND)
Launch site: SRIHARIKOTA (SRI)
Decay date: 2002-06-22

Note: This is SATELLITE DEBRIS
Your satellite tracking list
Your tracking list is empty




NASA's NSSDC Master Catalog

Two Line Element Set (TLE):
1 27323U 01049KV  02173.94502333 +.14249942 +26552-5 +79373-2 0  9994
2 27323 097.7871 256.2819 0017365 252.3350 107.5676 16.19009412054669
Source of the keplerian elements: AFSPC